[[{"header":{"parameterUnit":"m.s-1","parameterCategory":1,"la1":30.2991,"la2":30.254,"lo1":-89.0895,"lo2":-89.0444,"dy":0.0017,"dx":0.0017,"nx":28,"ny":28,"refTime":"2024-12-06T09:00:00:Z","depth":0,"parameterNumber":2,"parameterNumberName":"U-component_of_WINDS"},"data":[0,0,0,0,0,0,0,0,0,0,0,0,0,0,0,0,0,0,0,0,0,0,0,0,0,0,0,0,0,0,0,0,0,0,0,0,0,0,0,0,0,0,0,0,0,0,0,0,0,0,0,0,0,0,0,0,0,0,-1.4862,-1.4863,0,-1.4968,-1.4969,-1.497,-1.4957,-1.4955,-1.4953,-1.4952,-1.506,-1.5064,-1.5069,0,0,0,0,0,0,0,0,0,0,0,0,0,-1.4645,-1.4649,-1.4861,-1.4863,-1.4864,-1.4968,-1.4969,-1.4971,-1.4957,-1.4955,-1.4953,-1.4951,-1.5058,-1.5064,-1.5069,0,0,0,0,0,0,0,0,0,0,0,0,0,-1.4744,-1.465,-1.4861,-1.487,-1.4872,-1.4967,-1.4969,-1.4971,-1.4957,-1.4955,-1.4952,-1.495,-1.5057,-1.5063,-1.507,-1.5164,0,0,-1.509,-1.5093,0,0,0,0,0,0,0,0,-1.4738,-1.4752,-1.4867,-1.4869,-1.4872,-1.4946,-1.4932,-1.5036,-1.4958,-1.4925,-1.4951,-1.4948,-1.5024,-1.5033,-1.5059,-1.5169,-1.5173,-1.5091,-1.5095,-1.5098,-1.51,0,0,0,0,0,0,0,-1.4731,-1.4747,-1.4904,-1.4869,-1.4872,-1.4868,-1.4879,-1.4952,-1.4988,-1.4928,-1.4927,-1.494,-1.5025,-1.5053,-1.5061,-1.5175,-1.5091,-1.5097,-1.5101,-1.5104,-1.5366,-1.5369,0,0,0,0,0,0,-1.4722,-1.4741,-1.49,-1.4907,-1.4797,-1.4874,-1.4886,-1.4925,-1.4987,-1.4994,-1.4942,-1.4939,-1.5042,-1.5054,-1.5065,-1.518,-1.5098,-1.5104,-1.5108,-1.5363,-1.5367,-1.537,0,0,0,0,0,0,-1.4718,-1.4737,-1.4896,-1.4824,-1.4844,-1.488,-1.4924,-1.4928,-1.4956,-1.4998,-1.5004,-1.4964,-1.5041,-1.5056,-1.5139,-1.5183,-1.5107,-1.5113,-1.536,-1.5364,-1.5368,-1.5409,0,0,0,0,0,0,-1.4712,-1.4735,-1.4772,-1.4825,-1.4848,-1.4969,-1.4927,-1.4932,-1.4968,-1.4965,-1.502,-1.5027,-1.504,-1.5129,-1.5146,-1.5191,-1.5119,-1.5356,-1.5362,-1.5367,-1.5404,-1.5414,-1.5423,0,0,0,0,0,-1.4704,-1.4779,-1.4774,-1.4793,-1.4895,-1.4972,-1.4985,-1.4999,-1.4972,-1.5009,-1.5035,-1.5025,-1.5175,-1.5138,-1.5157,-1.5205,-1.5353,-1.536,-1.5367,-1.54,-1.5412,-1.5423,0,0,0,0,0,0,-1.473,-1.4786,-1.4781,-1.4876,-1.4919,-1.4969,-1.5016,-1.5011,-1.5063,-1.5058,-1.5073,-1.5085,-1.517,-1.5195,-1.5153,-1.5298,-1.526,-1.5271,-1.5279,-1.5292,-1.5301,-1.5294,-1.5124,0,0,0,0,0,-1.4747,-1.4805,-1.4851,-1.493,-1.4952,-1.498,-1.5014,-1.5021,-1.5066,-1.5085,-1.5117,-1.5161,-1.5218,-1.5256,-1.5311,-1.5406,-1.5418,-1.5448,-1.5458,-1.5465,-1.5475,-1.5528,-1.5542,-1.5392,-1.5392,-1.5391,0,0,-1.4782,-1.482,-1.4856,-1.4936,-1.497,-1.503,-1.4996,-1.506,-1.5105,-1.5094,-1.5176,-1.5201,-1.5251,-1.5341,-1.5382,-1.5365,-1.5519,-1.5474,-1.548,-1.5486,-1.5536,-1.555,-1.5563,-1.5396,-1.5395,-1.5395,0,0,-1.4878,-1.4912,-1.4982,-1.5017,-1.5069,-1.5087,-1.5104,-1.5155,-1.5171,-1.5252,-1.5246,-1.5298,-1.5396,-1.5432,-1.5463,-1.557,-1.5563,-1.5587,-1.5638,-1.5689,-1.5701,-1.5711,-1.5751,-1.5764,-1.5596,-1.5596,-1.5596,0,-1.4916,-1.5006,-1.5018,-1.5084,-1.5119,-1.5111,-1.5182,-1.5215,-1.5282,-1.5307,-1.5285,-1.5408,-1.5441,-1.554,-1.5566,-1.559,-1.561,-1.5582,-1.5698,-1.5709,-1.5719,-1.5756,-1.5771,-1.5599,-1.5599,-1.5598,-1.5598,0,-1.505,-1.5113,-1.5162,-1.5228,-1.5268,-1.5336,-1.5358,-1.5397,-1.5399,-1.5419,-1.5502,-1.5541,-1.5604,-1.5627,-1.563,-1.5726,-1.5713,-1.5695,-1.5658,-1.5736,-1.5771,-1.5786,-1.5603,-1.5602,-1.5601,-1.56,0,0,-1.5168,-1.5238,-1.5257,-1.5286,-1.5342,-1.5391,-1.5457,-1.5518,-1.5552,-1.5598,-1.5654,-1.5736,-1.5719,-1.5755,-1.5761,-1.5806,-1.5889,-1.5782,-1.5783,-1.5802,-1.5997,-1.6012,-1.6028,-1.5883,-1.5886,-1.5888,-1.5993,0,-1.527,-1.539,-1.5401,-1.5508,-1.5566,-1.5558,-1.5616,-1.5656,-1.5676,-1.5727,-1.5748,-1.5807,-1.578,-1.5801,-1.5844,-1.5869,-1.5928,-1.5862,-1.5936,-1.5939,-1.5926,-1.6047,-1.6063,-1.6161,-1.6007,-1.6009,-1.6011,0,-1.5407,-1.5457,-1.5569,-1.5617,-1.5641,-1.5693,-1.575,-1.5799,-1.5844,-1.5855,-1.5894,-1.5894,-1.5962,-1.592,-1.6013,-1.5968,-1.5998,-1.6014,-1.6018,-1.6028,-1.5981,-1.6061,-1.6193,-1.6208,-1.6033,-1.6031,-1.603,0,-1.5483,-1.5579,-1.5658,-1.5683,-1.574,-1.5777,-1.5802,-1.5845,-1.588,-1.5929,-1.5953,-1.6008,-1.6039,-1.6082,-1.6097,-1.6065,-1.619,-1.6149,-1.6201,-1.6201,-1.623,-1.6229,-1.637,-1.6247,-1.6246,-1.6246,-1.6246,0,-1.5598,-1.5667,-1.5693,-1.5743,-1.582,-1.5831,-1.5907,-1.593,-1.5967,-1.602,-1.6016,-1.6066,-1.6081,-1.6133,-1.6145,-1.6221,-1.6234,-1.6245,-1.6248,-1.6247,-1.6246,-1.6269,-1.6263,-1.625,-1.6249,-1.6248,-1.6248,0,-1.5698,-1.5718,-1.5805,-1.5851,-1.5864,-1.5919,-1.5958,-1.6005,-1.6023,-1.609,-1.6106,-1.6134,-1.6195,-1.6214,-1.6287,-1.6294,-1.6384,-1.6379,-1.6369,-1.637,-1.6422,-1.6417,-1.6585,-1.6608,-1.6467,-1.6468,-1.647,0,-1.5771,-1.5824,-1.5876,-1.5911,-1.5938,-1.5995,-1.6032,-1.6044,-1.6082,-1.6136,-1.6176,-1.6236,-1.6286,-1.6383,-1.641,-1.6465,-1.6463,-1.6518,-1.6472,-1.6469,-1.6466,-1.6463,-1.6469,-1.6527,-1.6529,-1.653,-1.6531,0,-1.5899,-1.5906,-1.5959,-1.6015,-1.6058,-1.6103,-1.6146,-1.6175,-1.6193,-1.6236,-1.6298,-1.6336,-1.641,-1.647,-1.6526,-1.6551,-1.6545,-1.6545,-1.656,-1.6561,-1.6554,-1.656,-1.6395,-1.6542,-1.6541,-1.654,-1.6539,-1.6539,-1.5989,-1.6036,-1.608,-1.6139,-1.6172,-1.6212,-1.6258,-1.6281,-1.6334,-1.6396,-1.6399,-1.6467,-1.6508,-1.6583,-1.6611,-1.6663,-1.6647,-1.6669,-1.6675,-1.6681,-1.6686,-1.6543,-1.6673,-1.6673,-1.6673,-1.6672,-1.6672,0,-1.6118,-1.6145,-1.6199,-1.6259,-1.6305,-1.6294,-1.634,-1.6379,-1.6439,-1.6479,-1.6527,-1.6598,-1.6655,-1.6685,-1.6742,-1.6778,-1.6777,-1.6793,-1.6792,-1.6798,-1.6696,-1.6678,-1.6794,-1.6794,-1.6794,-1.6794,-1.6794,-1.6793,-1.6191,-1.627,-1.6282,-1.6376,-1.6403,-1.647,-1.6497,-1.6534,-1.6565,-1.6645,-1.6693,-1.6712,-1.6748,-1.6807,-1.6859,-1.6866,-1.6888,-1.6906,-1.6912,-1.6817,-1.6805,-1.6793,-1.6776,-1.691,-1.6911,-1.7009,-1.701,-1.7011]},{"header":{"parameterUnit":"m.s-1","parameterCategory":1,"la1":30.2991,"la2":30.254,"lo1":-89.0895,"lo2":-89.0444,"dy":0.0017,"dx":0.0017,"nx":28,"ny":28,"refTime":"2024-12-06T09:00:00:Z","depth":0,"parameterNumber":3,"parameterNumberName":"V-component_of_WINDS"},"data":[0,0,0,0,0,0,0,0,0,0,0,0,0,0,0,0,0,0,0,0,0,0,0,0,0,0,0,0,0,0,0,0,0,0,0,0,0,0,0,0,0,0,0,0,0,0,0,0,0,0,0,0,0,0,0,0,0,0,-8.2239,-8.2241,0,-8.2402,-8.2404,-8.2406,-8.2312,-8.2308,-8.2303,-8.2299,-8.246,-8.2468,-8.2476,0,0,0,0,0,0,0,0,0,0,0,0,0,-8.184,-8.1848,-8.2239,-8.2241,-8.2243,-8.2402,-8.2404,-8.2406,-8.2313,-8.2308,-8.2302,-8.2297,-8.2457,-8.2467,-8.2477,0,0,0,0,0,0,0,0,0,0,0,0,0,-8.2009,-8.1851,-8.2239,-8.2216,-8.2215,-8.2401,-8.2404,-8.2407,-8.2314,-8.2307,-8.2301,-8.2294,-8.2454,-8.2466,-8.2479,-8.2694,0,0,-8.2518,-8.2523,0,0,0,0,0,0,0,0,-8.2,-8.2024,-8.2217,-8.2218,-8.2218,-8.233,-8.2322,-8.2503,-8.2316,-8.2277,-8.2299,-8.2291,-8.2422,-8.2437,-8.2482,-8.2702,-8.2709,-8.2519,-8.2527,-8.2532,-8.2536,0,0,0,0,0,0,0,-8.1988,-8.2016,-8.2303,-8.222,-8.222,-8.2195,-8.2212,-8.2356,-8.2385,-8.228,-8.2273,-8.2294,-8.242,-8.247,-8.2485,-8.2711,-8.2518,-8.253,-8.2538,-8.2543,-8.3114,-8.3121,0,0,0,0,0,0,-8.1979,-8.2007,-8.2298,-8.2308,-8.209,-8.2208,-8.2227,-8.2301,-8.2383,-8.239,-8.23,-8.2289,-8.2451,-8.247,-8.249,-8.2748,-8.2532,-8.2544,-8.2551,-8.3107,-8.3116,-8.3124,0,0,0,0,0,0,-8.1971,-8.2006,-8.2291,-8.2156,-8.2191,-8.2222,-8.2306,-8.2308,-8.2357,-8.2399,-8.2403,-8.2346,-8.2447,-8.2472,-8.2644,-8.2752,-8.255,-8.2561,-8.3098,-8.3109,-8.312,-8.3265,0,0,0,0,0,0,-8.196,-8.2004,-8.2087,-8.2159,-8.2198,-8.2445,-8.2313,-8.2316,-8.238,-8.2368,-8.2443,-8.2449,-8.2443,-8.2626,-8.2657,-8.2766,-8.2571,-8.3088,-8.3103,-8.3116,-8.3251,-8.328,-8.3305,0,0,0,0,0,-8.1946,-8.2121,-8.2092,-8.2128,-8.2304,-8.2452,-8.2474,-8.2466,-8.2389,-8.2473,-8.2499,-8.2446,-8.2735,-8.2644,-8.2679,-8.2793,-8.3081,-8.3099,-8.3115,-8.3239,-8.3274,-8.3304,0,0,0,0,0,0,-8.2059,-8.213,-8.2099,-8.2302,-8.2372,-8.2436,-8.2541,-8.2504,-8.2596,-8.258,-8.2564,-8.2582,-8.2762,-8.2794,-8.2691,-8.3005,-8.2896,-8.2921,-8.2978,-8.3012,-8.3039,-8.3027,-8.2582,0,0,0,0,0,-8.2108,-8.2224,-8.2278,-8.2453,-8.2489,-8.251,-8.2573,-8.2562,-8.2632,-8.2661,-8.27,-8.2769,-8.2875,-8.2945,-8.3045,-8.3255,-8.3269,-8.335,-8.3377,-8.3399,-8.3421,-8.3533,-8.357,-8.3179,-8.3179,-8.3179,0,0,-8.221,-8.2263,-8.2336,-8.2477,-8.2529,-8.2648,-8.2535,-8.2665,-8.2752,-8.268,-8.2845,-8.2876,-8.2952,-8.3144,-8.323,-8.3176,-8.3531,-8.3421,-8.3438,-8.3448,-8.3554,-8.3591,-8.3624,-8.3191,-8.3189,-8.3187,0,0,-8.2456,-8.2508,-8.2659,-8.2714,-8.2796,-8.2808,-8.2844,-8.2914,-8.2933,-8.3099,-8.3047,-8.3149,-8.3332,-8.3388,-8.3441,-8.3708,-8.3662,-8.374,-8.3881,-8.3991,-8.4022,-8.4049,-8.4144,-8.4178,-8.3761,-8.3762,-8.3762,0,-8.2572,-8.2751,-8.274,-8.2876,-8.2938,-8.2879,-8.3031,-8.3084,-8.3194,-8.3237,-8.3176,-8.3405,-8.3451,-8.3655,-8.3721,-8.3765,-8.3804,-8.3732,-8.4019,-8.4046,-8.4071,-8.4161,-8.4197,-8.3771,-8.377,-8.3769,-8.3768,0,-8.2888,-8.3013,-8.3125,-8.3235,-8.3309,-8.3452,-8.3461,-8.3538,-8.3519,-8.3537,-8.3706,-8.376,-8.387,-8.3917,-8.3899,-8.4118,-8.4082,-8.4021,-8.391,-8.4118,-8.4202,-8.4237,-8.3784,-8.378,-8.3778,-8.3775,0,0,-8.3211,-8.3314,-8.3355,-8.3404,-8.3489,-8.3584,-8.3723,-8.3832,-8.3898,-8.3975,-8.409,-8.4246,-8.419,-8.4249,-8.4237,-8.4333,-8.4541,-8.4259,-8.4261,-8.431,-8.4785,-8.4832,-8.4872,-8.4511,-8.4517,-8.4522,-8.4778,0,-8.3463,-8.3709,-8.3703,-8.393,-8.4045,-8.399,-8.411,-8.4175,-8.4195,-8.4293,-8.4314,-8.4425,-8.4342,-8.4378,-8.4471,-8.4496,-8.4636,-8.4477,-8.4616,-8.4621,-8.46,-8.4916,-8.4966,-8.5205,-8.4811,-8.4817,-8.4821,0,-8.379,-8.3881,-8.412,-8.4188,-8.4236,-8.4345,-8.4444,-8.4539,-8.461,-8.4618,-8.4685,-8.4657,-8.4795,-8.4681,-8.4871,-8.4763,-8.4819,-8.484,-8.4849,-8.4862,-8.4734,-8.4938,-8.5281,-8.5317,-8.4873,-8.4869,-8.4865,0,-8.4002,-8.4183,-8.4349,-8.4393,-8.4477,-8.4555,-8.4593,-8.4657,-8.4723,-8.4809,-8.4851,-8.4951,-8.5006,-8.5083,-8.5082,-8.4999,-8.5274,-8.516,-8.5283,-8.5283,-8.5344,-8.534,-8.5702,-8.538,-8.5379,-8.5379,-8.5378,0,-8.4284,-8.4433,-8.4446,-8.4548,-8.4712,-8.4703,-8.4865,-8.4895,-8.4953,-8.5059,-8.5016,-8.5116,-8.5108,-8.5208,-8.5208,-8.5365,-8.539,-8.5399,-8.5397,-8.5403,-8.5402,-8.544,-8.5423,-8.5388,-8.5386,-8.5384,-8.5382,0,-8.4549,-8.4564,-8.4742,-8.4807,-8.4827,-8.4945,-8.4999,-8.5096,-8.5112,-8.5246,-8.5277,-8.5302,-8.5417,-8.5424,-8.5556,-8.5556,-8.5747,-8.5726,-8.5724,-8.572,-8.5843,-8.5832,-8.6242,-8.6295,-8.5939,-8.5942,-8.5945,0,-8.4728,-8.4842,-8.492,-8.4989,-8.5032,-8.5143,-8.5211,-8.5205,-8.5277,-8.5366,-8.5451,-8.5563,-8.5652,-8.5839,-8.5867,-8.5968,-8.595,-8.6087,-8.5965,-8.5967,-8.5952,-8.5946,-8.5957,-8.6111,-8.6115,-8.6118,-8.612,0,-8.5046,-8.5047,-8.5147,-8.5251,-8.5333,-8.5413,-8.5488,-8.5546,-8.5549,-8.5631,-8.575,-8.582,-8.5956,-8.6067,-8.6165,-8.6201,-8.6162,-8.6159,-8.6192,-8.62,-8.6194,-8.6199,-8.5789,-8.6149,-8.6146,-8.6144,-8.6143,-8.6142,-8.5273,-8.5371,-8.5442,-8.5555,-8.561,-8.5681,-8.5775,-8.5804,-8.5903,-8.6016,-8.6005,-8.6137,-8.6203,-8.6331,-8.6375,-8.6477,-8.643,-8.6479,-8.6491,-8.6504,-8.6517,-8.6178,-8.6494,-8.6493,-8.6493,-8.6492,-8.6491,0,-8.5588,-8.5631,-8.5735,-8.5842,-8.593,-8.5887,-8.5967,-8.6043,-8.616,-8.6226,-8.6315,-8.6451,-8.6559,-8.6596,-8.6699,-8.6773,-8.6758,-8.6801,-8.6795,-8.6804,-8.6553,-8.6513,-8.6812,-8.6812,-8.6812,-8.6812,-8.6811,-8.6811,-8.5763,-8.5927,-8.5937,-8.6127,-8.6167,-8.6298,-8.6348,-8.6412,-8.6465,-8.6619,-8.6709,-8.6733,-8.6787,-8.6894,-8.699,-8.6998,-8.7038,-8.7089,-8.709,-8.6854,-8.6822,-8.6791,-8.6754,-8.7098,-8.7098,-8.7332,-8.7335,-8.7336]}]]